Hourly Weather Homichicy

Today, 22 April, Thursday

Time Temperature Precipitation Wind Pressure Humidity
00:00 +7°C° 0 mm 3 mps 744 mmHg 87%
01:00 +7°C° 0 mm 3 mps 744 mmHg 88%
02:00 +7°C° 0 mm 3 mps 744 mmHg 88%
03:00 +7°C° 0 mm 3 mps 744 mmHg 88%
04:00 +5°C° 0 mm 3 mps 744 mmHg 88%
05:00 +5°C° 0 mm 3 mps 744 mmHg 88%
06:00 +6°C° 0 mm 4 mps 744 mmHg 84%
07:00 +7°C° 0 mm 4 mps 744 mmHg 79%
08:00 +8°C° 0 mm 5 mps 744 mmHg 75%
09:00 +9°C° 0.1 mm 5 mps 745 mmHg 74%
10:00 +9°C° 0.1 mm 6 mps 745 mmHg 74%
11:00 +9°C° 0.1 mm 6 mps 745 mmHg 74%
12:00 +8°C° 0 mm 6 mps 746 mmHg 70%
13:00 +8°C° 0 mm 6 mps 746 mmHg 67%
14:00 +7°C° 0 mm 6 mps 746 mmHg 64%
15:00 +7°C° 0 mm 5 mps 746 mmHg 61%
16:00 +7°C° 0 mm 5 mps 746 mmHg 58%
17:00 +8°C° 0 mm 5 mps 746 mmHg 54%
18:00 +6°C° 0 mm 4 mps 746 mmHg 59%
19:00 +5°C° 0 mm 4 mps 746 mmHg 63%
20:00 +4°C° 0 mm 3 mps 747 mmHg 68%
21:00 +3°C° 0 mm 3 mps 747 mmHg 70%
22:00 +3°C° 0 mm 4 mps 747 mmHg 72%
23:00 +1°C° 0 mm 4 mps 747 mmHg 74%

Tomorrow, 23 April, Friday

Time Temperature Precipitation Wind Pressure Humidity
00:00 +1°C° 0 mm 4 mps 747 mmHg 76%
01:00 +1°C° 0 mm 5 mps 747 mmHg 77%
02:00 0°C° 0 mm 5 mps 747 mmHg 79%
03:00 0°C° 0 mm 5 mps 747 mmHg 78%
04:00 0°C° 0 mm 5 mps 747 mmHg 77%
05:00 -1°C° 0 mm 4 mps 747 mmHg 76%
06:00 0°C° 0 mm 5 mps 748 mmHg 71%
07:00 +1°C° 0 mm 6 mps 748 mmHg 66%
08:00 +2°C° 0 mm 6 mps 748 mmHg 62%
09:00 +3°C° 0 mm 6 mps 748 mmHg 60%
10:00 +4°C° 0 mm 6 mps 749 mmHg 59%
11:00 +4°C° 0 mm 6 mps 749 mmHg 57%
12:00 +5°C° 0.3 mm 6 mps 749 mmHg 54%
13:00 +5°C° 0.3 mm 7 mps 749 mmHg 52%
14:00 +6°C° 0.3 mm 7 mps 749 mmHg 49%
15:00 +6°C° 0.1 mm 7 mps 749 mmHg 52%
16:00 +5°C° 0.1 mm 7 mps 749 mmHg 55%
17:00 +5°C° 0.1 mm 6 mps 749 mmHg 58%
18:00 +4°C° 0.2 mm 6 mps 749 mmHg 64%
19:00 +3°C° 0.2 mm 5 mps 749 mmHg 70%
20:00 +3°C° 0.2 mm 4 mps 749 mmHg 77%
21:00 +1°C° 0.1 mm 4 mps 749 mmHg 77%
22:00 +1°C° 0.1 mm 4 mps 749 mmHg 77%
23:00 0°C° 0.1 mm 4 mps 750 mmHg 78%

Day after tomorrow, 24 April, Saturday

Time Temperature Precipitation Wind Pressure Humidity
00:00 -1°C° 0 mm 4 mps 750 mmHg 79%
01:00 -2°C° 0 mm 4 mps 750 mmHg 80%
02:00 -2°C° 0 mm 4 mps 750 mmHg 81%
03:00 -3°C° 0 mm 4 mps 750 mmHg 83%
04:00 -3°C° 0 mm 4 mps 750 mmHg 84%
05:00 -3°C° 0 mm 4 mps 751 mmHg 85%
06:00 -2°C° 0 mm 4 mps 751 mmHg 78%
07:00 -1°C° 0 mm 5 mps 751 mmHg 71%
08:00 +1°C° 0 mm 5 mps 751 mmHg 64%
09:00 +2°C° 0 mm 5 mps 751 mmHg 56%
10:00 +5°C° 0 mm 5 mps 751 mmHg 49%
11:00 +5°C° 0 mm 6 mps 751 mmHg 42%
12:00 +5°C° 0 mm 6 mps 751 mmHg 41%
13:00 +7°C° 0 mm 6 mps 751 mmHg 41%
14:00 +6°C° 0 mm 7 mps 751 mmHg 41%
15:00 +7°C° 0.1 mm 6 mps 751 mmHg 45%
16:00 +5°C° 0.1 mm 6 mps 750 mmHg 49%
17:00 +5°C° 0.1 mm 6 mps 750 mmHg 53%
18:00 +5°C° 0.1 mm 5 mps 750 mmHg 62%
19:00 +2°C° 0.1 mm 5 mps 751 mmHg 71%
20:00 +1°C° 0.1 mm 4 mps 751 mmHg 80%
21:00 +1°C° 0 mm 4 mps 751 mmHg 83%
22:00 +1°C° 0 mm 3 mps 751 mmHg 85%
23:00 +2°C° 0 mm 2 mps 750 mmHg 88%

25 April, Sunday

Time Temperature Precipitation Wind Pressure Humidity
00:00 0°C° 0 mm 3 mps 750 mmHg 89%
01:00 0°C° 0 mm 3 mps 750 mmHg 89%
02:00 -1°C° 0 mm 3 mps 750 mmHg 89%
03:00 -2°C° 0 mm 3 mps 750 mmHg 89%
04:00 -4°C° 0 mm 3 mps 750 mmHg 88%
05:00 -4°C° 0 mm 3 mps 750 mmHg 87%
06:00 -2°C° 0 mm 3 mps 750 mmHg 79%
07:00 -1°C° 0 mm 4 mps 750 mmHg 72%
08:00 0°C° 0 mm 4 mps 751 mmHg 64%
09:00 +1°C° 0 mm 4 mps 750 mmHg 58%
10:00 +4°C° 0 mm 4 mps 750 mmHg 53%
11:00 +5°C° 0 mm 4 mps 750 mmHg 47%
12:00 +5°C° 0.1 mm 4 mps 750 mmHg 46%
13:00 +5°C° 0.1 mm 5 mps 750 mmHg 45%
14:00 +6°C° 0.1 mm 5 mps 750 mmHg 44%
15:00 +6°C° 0 mm 5 mps 749 mmHg 45%
16:00 +6°C° 0 mm 5 mps 749 mmHg 47%
17:00 +6°C° 0 mm 5 mps 749 mmHg 48%
18:00 +3°C° 0.2 mm 5 mps 749 mmHg 57%
19:00 +3°C° 0.2 mm 4 mps 749 mmHg 66%
20:00 +2°C° 0.2 mm 3 mps 749 mmHg 74%
21:00 +1°C° 0 mm 3 mps 749 mmHg 77%
22:00 +1°C° 0 mm 3 mps 749 mmHg 80%
23:00 0°C° 0 mm 3 mps 749 mmHg 83%

26 April, Monday

Time Temperature Precipitation Wind Pressure Humidity
00:00 -1°C° 0 mm 3 mps 749 mmHg 85%
01:00 -1°C° 0 mm 3 mps 749 mmHg 88%
02:00 -2°C° 0 mm 3 mps 749 mmHg 90%
03:00 -4°C° 0 mm 3 mps 749 mmHg 91%
04:00 -4°C° 0 mm 3 mps 749 mmHg 91%
05:00 -4°C° 0 mm 3 mps 749 mmHg 92%
06:00 -2°C° 0 mm 3 mps 749 mmHg 83%
07:00 -1°C° 0 mm 4 mps 749 mmHg 75%
08:00 0°C° 0 mm 5 mps 749 mmHg 67%
09:00 +1°C° 0 mm 5 mps 749 mmHg 60%
10:00 +2°C° 0 mm 5 mps 749 mmHg 54%
11:00 +3°C° 0 mm 5 mps 749 mmHg 47%
12:00 +5°C° 0 mm 5 mps 748 mmHg 46%
13:00 +5°C° 0 mm 6 mps 748 mmHg 45%
14:00 +5°C° 0 mm 6 mps 748 mmHg 44%
15:00 +5°C° 0.1 mm 6 mps 747 mmHg 48%
16:00 +5°C° 0.1 mm 6 mps 747 mmHg 53%
17:00 +6°C° 0.1 mm 5 mps 747 mmHg 57%
18:00 +5°C° 0 mm 4 mps 747 mmHg 61%
19:00 +3°C° 0 mm 4 mps 747 mmHg 65%
20:00 +2°C° 0 mm 3 mps 747 mmHg 69%
21:00 +2°C° 0 mm 3 mps 747 mmHg 71%
22:00 +2°C° 0 mm 3 mps 747 mmHg 74%
23:00 +1°C° 0 mm 3 mps 747 mmHg 76%

27 April, Tuesday

Time Temperature Precipitation Wind Pressure Humidity
00:00 +1°C° 0 mm 3 mps 747 mmHg 79%
01:00 0°C° 0 mm 3 mps 747 mmHg 82%
02:00 -1°C° 0 mm 3 mps 747 mmHg 85%
03:00 -1°C° 0 mm 3 mps 747 mmHg 86%
04:00 -2°C° 0 mm 3 mps 747 mmHg 87%
05:00 -2°C° 0 mm 2 mps 747 mmHg 88%
06:00 +1°C° 0 mm 2 mps 747 mmHg 81%
07:00 +2°C° 0 mm 3 mps 747 mmHg 74%
08:00 +3°C° 0 mm 3 mps 747 mmHg 67%
09:00 +5°C° 0 mm 3 mps 747 mmHg 62%
10:00 +7°C° 0 mm 3 mps 747 mmHg 58%
11:00 +9°C° 0 mm 3 mps 747 mmHg 53%
12:00 +9°C° 0 mm 3 mps 747 mmHg 51%
13:00 +10°C° 0 mm 3 mps 746 mmHg 48%
14:00 +11°C° 0 mm 3 mps 746 mmHg 46%
15:00 +12°C° 0 mm 2 mps 746 mmHg 46%
16:00 +12°C° 0 mm 2 mps 746 mmHg 46%
17:00 +12°C° 0 mm 1 mps 745 mmHg 47%
18:00 +9°C° 0 mm 2 mps 745 mmHg 55%
19:00 +7°C° 0 mm 3 mps 745 mmHg 64%
20:00 +4°C° 0 mm 3 mps 745 mmHg 73%
21:00 +4°C° 0 mm 3 mps 745 mmHg 75%
22:00 +3°C° 0 mm 3 mps 745 mmHg 78%
23:00 +2°C° 0 mm 3 mps 745 mmHg 81%
Show more

We Need Your Consent

Meteoprog and our Service Providers may store and access personal data such as cookies, device identifiers or other similar technologies on your device and process such data to personalise content and ads, as well as provide social media features and to analyse the traffic.

  • Store and/or access information on your device

    Cookies, device identifiers or other information can be stored or accessed on your device for the purposes indicated above.

  • Personalised ads and content, ad and content measurement, audience insights, and products development

    Ads and content can be personalised based on a profile. More data can be added to better personalise ads and content. Ad and content performance can be measured. Insights about the audience who saw the ads and content can be derived. Such data can be used to develop or improve user’s experience, systems and software.

By clicking ‘I Agree’ you will allow the use of indicated cookies, device identifiers, web beacons or other similar technologies. Your settings can be changed in the browser on your device.

For certain purposes, legitimate interests may be relied on, rather than consent. You can read more about this in our Privacy and Cookie Policy.